Flag for Germany Weather past 2 weeks in Kirchheim unter Teck, Baden-Württemberg, Germany

Now
61 °F

Scattered clouds.


Feels Like: 61 °F
Forecast: 43 / 63 °F
Wind: 6 mph from Northwest

Location: Stuttgart-Echterdingen

Current Time: May 6, 2015 at 8:41:34 PM

Latest Report: May 6, 2015 at 8:20 PM


Visibility: N/A

Pressure: 30.01 "Hg

Humidity: 59%

Dew point: 46 °F

Location of Kirchheim unter TeckLocation

Historic Weather in Kirchheim unter Teck — Graph

°F

Kirchheim unter Teck temperature yesterday

Maximum temperature yesterday: 72 °F (at 11:20 AM)
Minimum temperature yesterday: 57 °F (at 9:20 PM)
Average temperature yesterday: 64 °F

Past Weeks' High & Low Weather Summary

 TemperatureHumidityPressure
High72 °F (May 4, 4:50 PM)100% (Apr 27, 9:50 PM)30.33 "Hg (Apr 27, 9:50 PM)
Low32 °F (Apr 23, 6:20 AM)23% (Apr 24, 2:50 PM)29.53 "Hg (Apr 27, 4:50 PM)
Average55 °F72%29.90 "Hg
* Reported Apr 21 7:20 PM — May 6 7:20 PM, Kirchheim unter Teck, Weather by CustomWeather, © 2015

Note: Actual official high and low records may vary slightly from our data, if they occured in-between our weather recording intervals... More about our weather records

Advertising

Kirchheim unter Teck weather history for previous 24 hours

 ConditionsComfort  
Time TempWeatherWind HumidityBarometerVisibility
7:20 PM
Wed, May 6
63 °FSunny.10 mph49%29.98 "Hg10 mi
6:50 PM63 °FScattered clouds.12 mph49%29.98 "HgN/A
6:20 PM63 °FPartly sunny.10 mph49%29.98 "HgN/A
5:50 PM63 °FPartly sunny.16 mph49%29.98 "HgN/A
5:20 PM63 °FPassing clouds.7 mph49%29.98 "HgN/A
4:50 PM63 °FPassing clouds.6 mph49%29.98 "HgN/A
4:20 PM64 °FPassing clouds.7 mph40%29.98 "HgN/A
3:50 PM63 °FPassing clouds.10 mph39%29.98 "HgN/A
3:20 PM63 °FPassing clouds.9 mph45%29.98 "HgN/A
2:50 PM63 °FPassing clouds.7 mph45%29.98 "HgN/A
2:20 PM63 °FPassing clouds.10 mph49%29.98 "HgN/A
1:50 PM61 °FScattered clouds.8 mph52%29.98 "HgN/A
1:20 PM63 °FScattered clouds.5 mph49%30.01 "HgN/A
12:50 PM61 °FPartly sunny.8 mph55%30.01 "HgN/A
12:20 PM61 °FScattered clouds.8 mph59%30.01 "HgN/A
11:50 AM61 °FScattered clouds.8 mph59%30.01 "HgN/A
11:20 AM57 °FBroken clouds.6 mph67%30.01 "HgN/A
10:50 AM57 °FBroken clouds.8 mph63%30.01 "HgN/A
10:20 AM57 °FBroken clouds.5 mph67%30.01 "HgN/A
9:50 AM57 °FBroken clouds.6 mph67%30.01 "HgN/A
9:20 AM55 °FBroken clouds.7 mph72%29.98 "HgN/A
8:50 AM55 °FBroken clouds.7 mph82%30.01 "HgN/A
8:20 AM55 °FBroken clouds.7 mph82%29.98 "HgN/A
7:50 AM55 °FBroken clouds.3 mph94%30.01 "HgN/A
7:20 AM54 °FLight rain. Partly sunny.1 mph100%29.98 "HgN/A
6:50 AM54 °FPassing clouds.1 mph100%29.98 "HgN/A
6:20 AM55 °FPassing clouds.2 mph94%29.95 "HgN/A
5:50 AM54 °FPassing clouds.3 mph100%29.95 "HgN/A
5:20 AM54 °FPassing clouds.2 mph100%29.95 "HgN/A
4:50 AM55 °FPassing clouds.1 mph94%29.95 "HgN/A
4:20 AM55 °FClear.1 mph94%29.95 "Hg10 mi
3:50 AM55 °FClear.3 mph94%29.95 "Hg10 mi
3:20 AM55 °FClear.2 mph94%29.95 "Hg10 mi
2:50 AM54 °FClear.8 mph94%29.95 "Hg10 mi
2:20 AM54 °FClear.5 mph94%29.95 "Hg10 mi
1:50 AM55 °FPassing clouds.3 mph94%29.92 "HgN/A
1:20 AM55 °FPartly cloudy.3 mph94%29.95 "HgN/A
12:50 AM57 °FPartly cloudy.1 mph88%29.92 "HgN/A
12:20 AM57 °FPassing clouds.6 mph88%29.92 "HgN/A
11:50 PM
Tue, May 5
57 °FClear.2 mph88%29.92 "Hg10 mi
11:20 PM57 °FPassing clouds.7 mph88%29.92 "HgN/A
10:50 PM57 °FPassing clouds.5 mph94%29.92 "HgN/A
10:20 PM57 °FLight rain. Partly cloudy.3 mph94%29.89 "HgN/A
9:50 PM57 °FLight rain. Partly cloudy.6 mph94%29.89 "HgN/A
9:20 PM57 °FBroken clouds.2 mph94%29.89 "HgN/A
8:50 PM59 °FLight rain. Broken clouds.6 mph88%29.86 "HgN/A
8:20 PM59 °FLight rain. Broken clouds.6 mph88%29.86 "HgN/A
Weather by CustomWeather, © 2015

See weather overviewHow to use our weather pages